Regional Weather Roundup
Issued by NWS

Home | Current Version | Previous Version | Graphics & Text | Print | Product List | Glossary On
Versions: 1 2 3 4 5 6 7 8 9 10 11 12 13 14 15 16 17 18 19 20 21 22 23 24 25 26 27 28 29 30 31 32 33 34 35 36 37 38 39 40 41 42 43 44 45 46 47 48 49 50
000
ASUS43 KDTX 120710
RWRMI
MICHIGAN HOURLY REGIONAL WEATHER ROUNDUP
NATIONAL WEATHER SERVICE DETROIT/PONTIAC MI
300 AM EDT SAT JUL 12 2014

NOTE: "FAIR" INDICATES FEW OR NO CLOUDS BELOW 12,000 FEET WITH NO
SIGNIFICANT WEATHER AND/OR OBSTRUCTION TO VISIBILITY.

MIZ047>049-052>055-059>063-066>070-074>076-081>083-120800-
SOUTHEAST LOWER MICHIGAN

CITY           SKY/WX    TMP DP  RH WIND       PRES   REMARKS
ADRIAN         MOCLDY    67  60  78 CALM      30.17F
ALMA           PTCLDY    60  59  95 CALM      30.14S
ANN ARBOR      MOCLDY    62  59  90 CALM      30.16F
BAD AXE        PTCLDY    62  58  85 S3        30.15F
CARO           CLEAR     60  60 100 CALM      30.14F
DETROIT CITY   CLEAR     69  60  73 S3        30.16F
DETROIT        MOCLDY    67  62  84 CALM      30.17F
FLINT          PTCLDY    65  58  78 S6        30.15F
GROSSE ILE     PTCLDY    72  66  83 S5        30.15F
HILLSDALE      PTCLDY    64  62  95 CALM      30.17F
HOWELL         MOCLDY    66  59  78 S5        30.16F

CITY           SKY/WX    TMP DP  RH WIND       PRES   REMARKS
JACKSON        MOCLDY    67  60  78 SE3       30.16F
LAMBERTVILLE   MOCLDY    66  59  77 CALM      30.16F
LANSING        PTCLDY    67  60  78 CALM      30.15F
LAPEER         FAIR      58  56  94 CALM      30.16F
MASON          MOCLDY    65  60  84 CALM      30.16S
MONROE         MOCLDY    66  63  88 CALM      30.15S
MT. CLEMENS    CLEAR     62  60  92 W2        30.15F
PONTIAC        PTCLDY    65  57  75 CALM      30.16F
PORT HOPE        N/A     66  57  72 VRB5      30.12F
PORT HURON       N/A     55  55 100 CALM      30.16F FOG
TRI CITIES     CLEAR     68  60  75 SW7       30.13F
TROY           PTCLDY    66  58  74 CALM      30.17F
SAGINAW HB     CLEAR     64  61  88 S6        30.13F
$$
MIZ043>046-050>051-056>058-064>065-071>073-077>080-120800-
SOUTHWEST LOWER MICHIGAN

CITY           SKY/WX    TMP DP  RH WIND       PRES   REMARKS
BATTLE CREEK   MOCLDY    69  59  70 S3        30.15F
BENTON HARBOR  MOCLDY    68  60  75 S3        30.12F
BIG RAPIDS     CLOUDY    64  63  97 MISG      30.13S
COLDWATER      CLOUDY    69  64  83 CALM      30.16S
FREMONT        FAIR      62  57  85 CALM      30.12S
HOLLAND        CLEAR     65  59  81 SE3       30.13F
GRAND RAPIDS   CLEAR     65  62  90 SE7       30.13F
IONIA          FAIR      63  61  93 CALM      30.13F
KALAMAZOO      PTCLDY    69  60  73 S5        30.15F
LUDINGTON      PTCLDY    60  55  84 SE5       30.10F
MARSHALL       MOCLDY    67  59  75 CALM      30.15F
MOUNT PLEASANT CLOUDY    64  61  91 CALM      30.13S
MUSKEGON       CLEAR     65  57  75 SE3       30.12F
SOUTH HAVEN    PTCLDY    63  62  99 CALM      30.12F
$$
MIZ016>042-120800-
NORTHERN LOWER MICHIGAN

CITY           SKY/WX    TMP DP  RH WIND       PRES   REMARKS
ALPENA         CLEAR     63  56  78 SW3       30.10F
BEAVER ISLAND  MOCLDY    66  52  59 SW10G20   30.06F
BELLAIRE       CLOUDY    69  56  62 S3        30.08S
CADILLAC       CLOUDY    65  56  70 SW6       30.13R
CHARLEVOIX     CLOUDY    69  55  59 S6        30.10S
FRANKFORT      CLOUDY    71  53  53 S8        30.08F
GAYLORD        CLEAR     62  56  80 SW8       30.11F
GRAYLING       CLOUDY    58  58  99 CALM      30.13F
HARBOR SPRINGS CLEAR     61  59  93 CALM      30.07S
HOUGHTON LAKE  PTCLDY    65  58  78 S6        30.13F
MANISTEE       PTCLDY    63  54  72 CALM      30.10F
OSCODA         CLEAR     61  59  93 CALM      30.11F
PELLSTON       PTCLDY    58  57  97 CALM      30.08S
ROGERS CITY    MOCLDY    64  59  85 S3        30.10S
TRAVERSE CITY  CLOUDY    69  54  58 S3        30.08S
$$
MIZ007>008-015-120800-
EASTERN UPPER MICHIGAN

CITY           SKY/WX    TMP DP  RH WIND       PRES   REMARKS
KINROSS        CLOUDY    64  57  77 S6        30.06F
MACKINAC ISLAN CLOUDY    65  58  78 S7        30.07S
NEWBERRY       MOCLDY    61  49  64 S14G20    30.04S
S. S. MARIE    CLOUDY    62  57  83 E3        30.05F
MUNISING         N/A     68  53  58 S10       29.98F
$$
MIZ004>006-011>014-085-120800-
CENTRAL UPPER MICHIGAN

CITY           SKY/WX    TMP DP  RH WIND       PRES   REMARKS
MANISTIQUE     CLOUDY    56  52  85 S7        30.03F
ESCANABA       CLOUDY    66  55  68 S10       30.02F
MENOMINEE      CLOUDY    68  57  68 SW7       30.03S
SAWYER-GWINN   CLOUDY    67  57  70 SW6       30.01S
$$
MIZ001>003-009>011-084-120800-
WESTERN UPPER MICHIGAN

CITY           SKY/WX    TMP DP  RH WIND       PRES   REMARKS
IRON MOUNTAIN  PTCLDY    66  57  72 S6        30.01F
HOUGHTON       CLEAR     69  63  81 W13       29.95F
COPPER HARBOR    N/A     67  63  87 CALM      29.92F
IRONWOOD       PTCLDY    68  63  83 SW7       29.97F
$$

ABBREVIATIONS USED IN REMARKS
   TC - TEMPERATURE IN CELSIUS
  WCI - WIND CHILL INDEX
   HX - HEAT INDEX
  VSB - VISIBILITY




USA.gov is the U.S. government's official web portal to all federal, state and local government web resources and services.